Home   Weather   Santiago de Cuba   Past weeks

Flag for Cuba Past Weather in Santiago de Cuba, Cuba — Yesterday and Last 2 Weeks

Now
86 °F

Broken clouds.


Feels Like: 95 °F
Forecast: 75 / 90 °F
Wind: 14 mph from Southeast

Location: Santiago De Cuba - Oriente

Current Time: Aug 30, 2016 at 1:21:03 PM

Latest Report: Aug 30, 2016 at 12:50 PM


Visibility: 6 mi

Pressure: 29.98 "Hg

Humidity: 70%

Dew Point: 75 °F

Location of Santiago de CubaLocation

Past Weather in Santiago de Cuba — Graph

°F

Santiago de Cuba Temperature Yesterday

Maximum temperature yesterday: 86 °F (at 1:53 PM)
Minimum temperature yesterday: 73 °F (at 12:52 AM)
Average temperature yesterday: 79 °F

High & Low Weather Summary for the Past Weeks

 TemperatureHumidityPressure
High95 °F (Aug 25, 12:51 PM)100% (Aug 26, 7:50 AM)30.07 "Hg (Aug 26, 7:50 AM)
Low72 °F (Aug 30, 1:51 AM)36% (Aug 19, 10:52 AM)29.83 "Hg (Aug 25, 12:51 PM)
Average82 °F73%29.96 "Hg
* Reported Aug 15 11:51 AM — Aug 30 11:51 AM, Santiago de Cuba, Weather by CustomWeather, © 2016

Note: Actual official high and low records may vary slightly from our data, if they occured in-between our weather recording intervals... More about our weather records

Advertising

Santiago de Cuba Weather History for the Previous 24 Hours

Scroll right to see more
 ConditionsComfort  
Time TempWeatherWind HumidityBarometerVisibility
11:51 AM
Tue, Aug 30
86 °FScattered clouds.14 mph70%29.98 "Hg6 mi
10:51 AM86 °FScattered clouds.13 mph66%29.98 "Hg6 mi
9:50 AM86 °FScattered clouds.9 mph62%29.98 "Hg6 mi
8:51 AM82 °FScattered clouds.6 mph74%29.95 "Hg6 mi
7:50 AM77 °FPartly sunny.2 mph89%29.92 "Hg6 mi
6:50 AM73 °FPartly cloudy.5 mph94%29.92 "Hg6 mi
5:52 AM73 °FPartly cloudy.7 mph94%29.92 "Hg6 mi
4:51 AM72 °FPassing clouds.5 mph100%29.95 "Hg6 mi
3:51 AM72 °FPassing clouds.6 mph94%29.95 "Hg5 mi
2:51 AM72 °FPassing clouds.5 mph94%29.98 "Hg5 mi
1:51 AM72 °FPassing clouds.5 mph94%29.98 "Hg4 mi
12:51 AM73 °FStrong thunderstorms. Partly cloudy.21 mphN/AN/A2 mi
11:50 PM
Mon, Aug 29
77 °FThundershowers. Passing clouds.6 mph79%N/A6 mi
10:50 PM77 °FPassing clouds.8 mph83%29.98 "Hg6 mi
9:50 PM79 °FPartly cloudy.6 mph84%30.01 "Hg6 mi
8:51 PM82 °FPartly cloudy.2 mph74%29.98 "Hg6 mi
7:51 PM82 °FBroken clouds.No wind74%29.98 "Hg6 mi
6:50 PM84 °FBroken clouds.5 mph70%29.95 "Hg6 mi
5:50 PM84 °FScattered clouds.6 mph70%29.92 "Hg6 mi
4:51 PM86 °FScattered clouds.8 mph66%29.92 "Hg6 mi
3:53 PM86 °FScattered clouds.9 mph66%29.92 "Hg6 mi
2:53 PM86 °FScattered clouds.9 mph66%29.92 "Hg6 mi
1:53 PM86 °FScattered clouds.6 mph66%29.95 "Hg6 mi
Weather by CustomWeather, © 2016

See weather overviewHow to use our weather pages